Location: *
(53.9002°N, 27.5624°E)
Time: 15:56:06
(UTC+00:00)

Cosmos 2344 - Pass Details

Date: 12 November 2019
Orbit: 1258 x 2984 km, 63.3° (Epoch: 05 December)

Event Time Altitude Azimuth Distance (km) Brightness Sun altitude
Rises 15:19:19 0° 209° (SSW) 4,237 7.1 -9.3°
Reaches altitude 10° 15:22:03 10° 206° (SSW) 3,239 6.4 -9.7°
Maximum altitude 15:29:23 62° 127° (SE) 1,447 3.7 -10.7°
Drops below altitude 10° 15:37:42 10° 50° (NE) 3,654 5.4 -11.9°
Enters shadow 15:37:46 10° 49° (NE) 3,678 5.4 -11.9°
